Powrót do katalogu

STARLINK-35944

AktywnyŁącznośćVLEO
NORAD 66928·PAYLOAD·🇺🇸 United States

Wystrzelony Dec 7, 2025 z Vandenberg Space Force Base

Loading…

Następne Przeloty (najbliższe 24 godziny)

TLE

ŚwieżeSource: CelesTrak SupGP

Epoka: Sep 15, 2026, 03:47 UTC

1 66928C 25286D   26258.15812500 -.00046257  00000+0 -13667-2 0  2587
2 66928  53.1589 195.0207 0001346  85.4851 244.1548 15.34412786    13

Śledź STARLINK-35944 w czasie rzeczywistym z AllMySat

Download on the App Store